Погода в Паньчжихуа

Китай     23°02′14″N   102°34′30″E
темп.,
°C
ветер,
м/с
пор.,
м/с
влажн.,
%
обл.,
%
осадки,
мм/ч
давл.,
гПа
погр.,
м
8 марта, пн
пн823:00+14з123582 0.0 101524
02:00+12ююв014555 0.0 101523
05:00+10вюв018166 0.0 101523
08:00+11юв119381 0.0 101739
11:00+21ююв234236 0.0 10171000
14:00+25юз4101940 0.0 10133107
17:00+25юз49180 0.0 10093417
20:00+17ююз12340 0.0 101243
9 марта, вт
вт923:00+15зюз11365 0.0 101523
02:00+12юв114813 0.0 101523
05:00+10вюв01920 0.0 101524
08:00+11юв11985 0.0 101748
11:00+22ююв234955 0.0 10171111
14:00+25юз492332 0.1 10122939
17:00+25ююз492028 0.0 10093308
20:00+17юз133739 0.0 101258
10 марта, ср
ср1023:00+15з12408 0.0 101524
02:00+13ююз014516 0.0 101523
05:00+11зюз01720 0.0 101422
08:00+12ююз11890 0.0 101632
11:00+23ю25364 0.1 10161737
14:00+26юз482212 0.1 10123198
17:00+26юз382180 0.0 10093320
20:00+17юз114175 0.0 101223
11 марта, чт
чт1123:00+16з11413 0.0 101523
02:00+14ююв015535 0.0 101523
05:00+11юв019013 0.0 101523
08:00+13ю019325 0.0 101830
11:00+23ю24394 0.4 10181686
14:00+26зюз472125 0.4 10133483
17:00+25юз362477 0.0 10112844
20:00+19ююв113862 0.0 101324
12 марта, пт
пт1223:00+16ююз114536 0.0 101523
02:00+13з006525 0.0 101623
05:00+12ююв01850 0.0 101523
08:00+13ююз01901 0.0 101732
11:00+24ю24410 0.0 10171621
14:00+27зюз47219 0.1 10123381
17:00+25юз372256 0.0 10092925
20:00+18ююз124163 0.0 101223